﻿測定場所 (Monitoring sites),日付 (Measurement date),時間 (Measurement time),線量率 最大値 (max) μGy/h,線量率 最小値 (min) μGy/h,線量率 平均値 (average) μGy/h,
足立 (Adachi),2013-11-17,23:01～24:00,0.0519,0.0459,0.0490,
足立 (Adachi),2013-11-17,22:01～23:00,0.0519,0.0467,0.0492,
足立 (Adachi),2013-11-17,21:01～22:00,0.0519,0.0454,0.0485,
足立 (Adachi),2013-11-17,20:01～21:00,0.0525,0.0445,0.0484,
足立 (Adachi),2013-11-17,19:01～20:00,0.0522,0.0438,0.0479,
足立 (Adachi),2013-11-17,18:01～19:00,0.0506,0.0436,0.0473,
足立 (Adachi),2013-11-17,17:01～18:00,0.0504,0.0447,0.0477,
足立 (Adachi),2013-11-17,16:01～17:00,0.0502,0.0447,0.0472,
足立 (Adachi),2013-11-17,15:01～16:00,0.0522,0.0451,0.0478,
足立 (Adachi),2013-11-17,14:01～15:00,0.0517,0.0464,0.0486,
足立 (Adachi),2013-11-17,13:01～14:00,0.0524,0.0463,0.0486,
足立 (Adachi),2013-11-17,12:01～13:00,0.0533,0.0459,0.0485,
足立 (Adachi),2013-11-17,11:01～12:00,0.0536,0.0458,0.0491,
足立 (Adachi),2013-11-17,10:01～11:00,0.0529,0.0467,0.0494,
足立 (Adachi),2013-11-17,09:01～10:00,0.0543,0.0463,0.0496,
足立 (Adachi),2013-11-17,08:01～09:00,0.0517,0.0455,0.0488,
足立 (Adachi),2013-11-17,07:01～08:00,0.0518,0.0451,0.0487,
足立 (Adachi),2013-11-17,06:01～07:00,0.0524,0.0466,0.0491,
足立 (Adachi),2013-11-17,05:01～06:00,0.0523,0.0458,0.0494,
足立 (Adachi),2013-11-17,04:01～05:00,0.0531,0.0446,0.0487,
足立 (Adachi),2013-11-17,03:01～04:00,0.0528,0.0459,0.0489,
足立 (Adachi),2013-11-17,02:01～03:00,0.0527,0.0466,0.0493,
足立 (Adachi),2013-11-17,01:01～02:00,0.0540,0.0467,0.0491,
足立 (Adachi),2013-11-17,00:01～01:00,0.0531,0.0460,0.0487,
足立 (Adachi),2013-11-16,23:01～24:00,0.0513,0.0454,0.0482,
足立 (Adachi),2013-11-16,22:01～23:00,0.0522,0.0451,0.0481,
足立 (Adachi),2013-11-16,21:01～22:00,0.0513,0.0446,0.0474,
足立 (Adachi),2013-11-16,20:01～21:00,0.0506,0.0440,0.0480,
足立 (Adachi),2013-11-16,19:01～20:00,0.0511,0.0442,0.0475,
足立 (Adachi),2013-11-16,18:01～19:00,0.0505,0.0435,0.0468,
足立 (Adachi),2013-11-16,17:01～18:00,0.0506,0.0443,0.0471,
足立 (Adachi),2013-11-16,16:01～17:00,0.0503,0.0442,0.0474,
足立 (Adachi),2013-11-16,15:01～16:00,0.0507,0.0443,0.0474,
足立 (Adachi),2013-11-16,14:01～15:00,0.0502,0.0435,0.0474,
足立 (Adachi),2013-11-16,13:01～14:00,0.0518,0.0434,0.0476,
足立 (Adachi),2013-11-16,12:01～13:00,0.0518,0.0447,0.0482,
足立 (Adachi),2013-11-16,11:01～12:00,0.0524,0.0448,0.0481,
足立 (Adachi),2013-11-16,10:01～11:00,0.0524,0.0449,0.0482,
足立 (Adachi),2013-11-16,09:01～10:00,0.0503,0.0440,0.0481,
足立 (Adachi),2013-11-16,08:01～09:00,0.0512,0.0440,0.0478,
足立 (Adachi),2013-11-16,07:01～08:00,0.0507,0.0436,0.0476,
足立 (Adachi),2013-11-16,06:01～07:00,0.0509,0.0444,0.0480,
足立 (Adachi),2013-11-16,05:01～06:00,0.0510,0.0449,0.0479,
足立 (Adachi),2013-11-16,04:01～05:00,0.0512,0.0444,0.0479,
足立 (Adachi),2013-11-16,03:01～04:00,0.0515,0.0440,0.0476,
足立 (Adachi),2013-11-16,02:01～03:00,0.0507,0.0436,0.0481,
足立 (Adachi),2013-11-16,01:01～02:00,0.0508,0.0440,0.0481,
足立 (Adachi),2013-11-16,00:01～01:00,0.0510,0.0441,0.0480,
足立 (Adachi),2013-11-15,23:01～24:00,0.0526,0.0450,0.0483,
足立 (Adachi),2013-11-15,22:01～23:00,0.0518,0.0442,0.0478,
足立 (Adachi),2013-11-15,21:01～22:00,0.0531,0.0444,0.0479,
足立 (Adachi),2013-11-15,20:01～21:00,0.0520,0.0455,0.0481,
足立 (Adachi),2013-11-15,19:01～20:00,0.0514,0.0446,0.0485,
足立 (Adachi),2013-11-15,18:01～19:00,0.0514,0.0438,0.0482,
足立 (Adachi),2013-11-15,17:01～18:00,0.0520,0.0456,0.0487,
足立 (Adachi),2013-11-15,16:01～17:00,0.0566,0.0471,0.0507,
足立 (Adachi),2013-11-15,15:01～16:00,0.0595,0.0509,0.0547,
足立 (Adachi),2013-11-15,14:01～15:00,0.0599,0.0524,0.0559,
足立 (Adachi),2013-11-15,13:01～14:00,0.0561,0.0490,0.0526,
足立 (Adachi),2013-11-15,12:01～13:00,0.0571,0.0480,0.0517,
足立 (Adachi),2013-11-15,11:01～12:00,0.0521,0.0447,0.0491,
足立 (Adachi),2013-11-15,10:01～11:00,0.0518,0.0460,0.0492,
足立 (Adachi),2013-11-15,09:01～10:00,0.0527,0.0454,0.0487,
足立 (Adachi),2013-11-15,08:01～09:00,0.0533,0.0456,0.0487,
足立 (Adachi),2013-11-15,07:01～08:00,0.0517,0.0457,0.0484,
足立 (Adachi),2013-11-15,06:01～07:00,0.0524,0.0448,0.0483,
足立 (Adachi),2013-11-15,05:01～06:00,0.0532,0.0460,0.0484,
足立 (Adachi),2013-11-15,04:01～05:00,0.0537,0.0460,0.0488,
足立 (Adachi),2013-11-15,03:01～04:00,0.0524,0.0466,0.0489,
足立 (Adachi),2013-11-15,02:01～03:00,0.0515,0.0456,0.0487,
足立 (Adachi),2013-11-15,01:01～02:00,0.0521,0.0458,0.0487,
足立 (Adachi),2013-11-15,00:01～01:00,0.0518,0.0452,0.0487,
足立 (Adachi),2013-11-14,23:01～24:00,0.0512,0.0449,0.0485,
足立 (Adachi),2013-11-14,22:01～23:00,0.0519,0.0453,0.0483,
足立 (Adachi),2013-11-14,21:01～22:00,0.0514,0.0449,0.0478,
足立 (Adachi),2013-11-14,20:01～21:00,0.0510,0.0451,0.0479,
足立 (Adachi),2013-11-14,19:01～20:00,0.0511,0.0450,0.0477,
足立 (Adachi),2013-11-14,18:01～19:00,0.0510,0.0452,0.0476,
足立 (Adachi),2013-11-14,17:01～18:00,0.0500,0.0435,0.0470,
足立 (Adachi),2013-11-14,16:01～17:00,0.0510,0.0442,0.0476,
足立 (Adachi),2013-11-14,15:01～16:00,0.0498,0.0440,0.0471,
足立 (Adachi),2013-11-14,14:01～15:00,0.0509,0.0443,0.0472,
足立 (Adachi),2013-11-14,13:01～14:00,0.0503,0.0447,0.0476,
足立 (Adachi),2013-11-14,12:01～13:00,0.0511,0.0451,0.0481,
足立 (Adachi),2013-11-14,11:01～12:00,0.0518,0.0450,0.0482,
足立 (Adachi),2013-11-14,10:01～11:00,0.0512,0.0459,0.0485,
足立 (Adachi),2013-11-14,09:01～10:00,0.0512,0.0429,0.0471,
足立 (Adachi),2013-11-14,08:01～09:00,0.0519,0.0458,0.0481,
足立 (Adachi),2013-11-14,07:01～08:00,0.0512,0.0448,0.0481,
足立 (Adachi),2013-11-14,06:01～07:00,0.0530,0.0445,0.0482,
足立 (Adachi),2013-11-14,05:01～06:00,0.0527,0.0442,0.0481,
足立 (Adachi),2013-11-14,04:01～05:00,0.0508,0.0451,0.0480,
足立 (Adachi),2013-11-14,03:01～04:00,0.0520,0.0445,0.0479,
足立 (Adachi),2013-11-14,02:01～03:00,0.0501,0.0446,0.0474,
足立 (Adachi),2013-11-14,01:01～02:00,0.0516,0.0430,0.0475,
足立 (Adachi),2013-11-14,00:01～01:00,0.0505,0.0440,0.0475,
足立 (Adachi),2013-11-13,23:01～24:00,0.0501,0.0443,0.0473,
足立 (Adachi),2013-11-13,22:01～23:00,0.0517,0.0452,0.0483,
足立 (Adachi),2013-11-13,21:01～22:00,0.0509,0.0440,0.0479,
足立 (Adachi),2013-11-13,20:01～21:00,0.0517,0.0448,0.0479,
足立 (Adachi),2013-11-13,19:01～20:00,0.0507,0.0433,0.0476,
足立 (Adachi),2013-11-13,18:01～19:00,0.0506,0.0429,0.0475,
足立 (Adachi),2013-11-13,17:01～18:00,0.0504,0.0443,0.0472,
足立 (Adachi),2013-11-13,16:01～17:00,0.0509,0.0427,0.0470,
足立 (Adachi),2013-11-13,15:01～16:00,0.0503,0.0437,0.0472,
足立 (Adachi),2013-11-13,14:01～15:00,0.0522,0.0438,0.0473,
足立 (Adachi),2013-11-13,13:01～14:00,0.0502,0.0451,0.0475,
足立 (Adachi),2013-11-13,12:01～13:00,0.0507,0.0437,0.0473,
足立 (Adachi),2013-11-13,11:01～12:00,0.0514,0.0434,0.0471,
足立 (Adachi),2013-11-13,10:01～11:00,0.0512,0.0438,0.0470,
足立 (Adachi),2013-11-13,09:01～10:00,0.0495,0.0443,0.0470,
足立 (Adachi),2013-11-13,08:01～09:00,0.0498,0.0449,0.0473,
足立 (Adachi),2013-11-13,07:01～08:00,0.0502,0.0443,0.0466,
足立 (Adachi),2013-11-13,06:01～07:00,0.0512,0.0431,0.0469,
足立 (Adachi),2013-11-13,05:01～06:00,0.0509,0.0454,0.0475,
足立 (Adachi),2013-11-13,04:01～05:00,0.0509,0.0452,0.0479,
足立 (Adachi),2013-11-13,03:01～04:00,0.0513,0.0449,0.0482,
足立 (Adachi),2013-11-13,02:01～03:00,0.0521,0.0455,0.0483,
足立 (Adachi),2013-11-13,01:01～02:00,0.0505,0.0452,0.0479,
足立 (Adachi),2013-11-13,00:01～01:00,0.0517,0.0437,0.0480,
足立 (Adachi),2013-11-12,23:01～24:00,0.0504,0.0441,0.0480,
足立 (Adachi),2013-11-12,22:01～23:00,0.0517,0.0455,0.0484,
足立 (Adachi),2013-11-12,21:01～22:00,0.0509,0.0446,0.0480,
足立 (Adachi),2013-11-12,20:01～21:00,0.0502,0.0439,0.0480,
足立 (Adachi),2013-11-12,19:01～20:00,0.0517,0.0452,0.0477,
足立 (Adachi),2013-11-12,18:01～19:00,0.0502,0.0448,0.0474,
足立 (Adachi),2013-11-12,17:01～18:00,0.0506,0.0439,0.0472,
足立 (Adachi),2013-11-12,16:01～17:00,0.0510,0.0442,0.0470,
足立 (Adachi),2013-11-12,15:01～16:00,0.0518,0.0443,0.0473,
足立 (Adachi),2013-11-12,14:01～15:00,0.0499,0.0434,0.0471,
足立 (Adachi),2013-11-12,13:01～14:00,0.0508,0.0438,0.0479,
足立 (Adachi),2013-11-12,12:01～13:00,0.0504,0.0436,0.0475,
足立 (Adachi),2013-11-12,11:01～12:00,0.0504,0.0437,0.0471,
足立 (Adachi),2013-11-12,10:01～11:00,0.0508,0.0445,0.0472,
足立 (Adachi),2013-11-12,09:01～10:00,0.0505,0.0432,0.0469,
足立 (Adachi),2013-11-12,08:01～09:00,0.0499,0.0436,0.0468,
足立 (Adachi),2013-11-12,07:01～08:00,0.0510,0.0437,0.0468,
足立 (Adachi),2013-11-12,06:01～07:00,0.0498,0.0434,0.0467,
足立 (Adachi),2013-11-12,05:01～06:00,0.0510,0.0448,0.0471,
足立 (Adachi),2013-11-12,04:01～05:00,0.0506,0.0443,0.0473,
足立 (Adachi),2013-11-12,03:01～04:00,0.0505,0.0447,0.0473,
足立 (Adachi),2013-11-12,02:01～03:00,0.0507,0.0456,0.0480,
足立 (Adachi),2013-11-12,01:01～02:00,0.0519,0.0449,0.0482,
足立 (Adachi),2013-11-12,00:01～01:00,0.0509,0.0453,0.0482,
足立 (Adachi),2013-11-11,23:01～24:00,0.0516,0.0456,0.0485,
足立 (Adachi),2013-11-11,22:01～23:00,0.0523,0.0453,0.0483,
足立 (Adachi),2013-11-11,21:01～22:00,0.0520,0.0448,0.0478,
足立 (Adachi),2013-11-11,20:01～21:00,0.0522,0.0450,0.0480,
足立 (Adachi),2013-11-11,19:01～20:00,0.0514,0.0444,0.0482,
足立 (Adachi),2013-11-11,18:01～19:00,0.0517,0.0448,0.0479,
足立 (Adachi),2013-11-11,17:01～18:00,0.0513,0.0439,0.0481,
足立 (Adachi),2013-11-11,16:01～17:00,0.0548,0.0470,0.0504,
足立 (Adachi),2013-11-11,15:01～16:00,0.0599,0.0502,0.0553,
足立 (Adachi),2013-11-11,14:01～15:00,0.0612,0.0451,0.0497,
足立 (Adachi),2013-11-11,13:01～14:00,0.0517,0.0447,0.0478,
足立 (Adachi),2013-11-11,12:01～13:00,0.0509,0.0453,0.0475,
足立 (Adachi),2013-11-11,11:01～12:00,0.0501,0.0445,0.0476,
足立 (Adachi),2013-11-11,10:01～11:00,0.0493,0.0432,0.0466,
足立 (Adachi),2013-11-11,09:01～10:00,0.0507,0.0428,0.0468,
足立 (Adachi),2013-11-11,08:01～09:00,0.0527,0.0438,0.0470,
足立 (Adachi),2013-11-11,07:01～08:00,0.0501,0.0436,0.0471,
足立 (Adachi),2013-11-11,06:01～07:00,0.0543,0.0449,0.0488,
足立 (Adachi),2013-11-11,05:01～06:00,0.0585,0.0481,0.0536,
足立 (Adachi),2013-11-11,04:01～05:00,0.0603,0.0469,0.0536,
足立 (Adachi),2013-11-11,03:01～04:00,0.0510,0.0451,0.0483,
足立 (Adachi),2013-11-11,02:01～03:00,0.0511,0.0456,0.0484,
足立 (Adachi),2013-11-11,01:01～02:00,0.0537,0.0436,0.0488,
足立 (Adachi),2013-11-11,00:01～01:00,0.0524,0.0461,0.0489,
